Theta_e
319 328 339 340 343 337 336 337 333 331 331 329 328 327 325 324 323 324 326 327 326 326 329 332 328 326 328 331 332 331 333 339 338 335 331 330 329 326 326 326 326 328 330 332 335 334 333 334 336
333 337 337 340 340 339 337 334 332 331 330 328 327 325 324 324 323 323 324 327 326 326 329 328 329 322 317 325 331 332 338 338 338 336 333 331 331 330 329 328 327 327 328 330 333 335 334 333 335
335 335 338 341 339 338 336 332 331 331 328 327 327 325 324 326 324 322 326 327 326 326 325 325 323 316 318 324 328 331 329 325 329 331 331 333 332 331 331 330 328 328 327 329 330 332 335 333 334
333 336 336 335 335 336 334 331 330 329 328 326 326 325 326 325 325 324 326 325 324 323 322 323 321 320 317 324 339 337 329 328 329 331 330 331 331 331 331 331 330 328 328 328 329 330 332 334 333
333 334 336 337 336 334 333 331 329 328 327 326 325 325 326 326 326 325 324 323 322 322 322 322 323 321 319 322 337 339 335 333 332 331 330 331 330 330 330 330 330 329 328 327 328 331 331 332 333
333 333 334 336 333 335 333 330 328 327 327 326 325 325 325 327 326 325 324 324 323 323 324 322 323 321 320 318 322 326 329 329 328 329 330 330 329 329 328 328 329 330 329 327 328 327 330 331 331
334 334 335 334 334 333 332 330 327 327 327 326 325 324 326 327 324 325 323 322 322 322 322 322 322 322 321 321 322 321 320 319 319 322 325 327 327 327 327 327 329 329 329 327 327 328 327 330 331
331 334 334 333 333 333 332 330 330 327 327 325 324 324 324 327 325 324 323 322 322 322 322 322 321 321 324 326 326 325 324 322 322 321 325 325 326 327 325 327 328 329 329 327 325 326 326 327 332
331 332 332 331 331 332 331 331 330 328 327 325 324 324 325 325 324 323 323 322 323 322 322 321 321 325 328 327 326 325 327 326 325 324 325 324 325 325 326 327 327 328 329 327 328 329 327 327 332
331 331 329 329 329 330 330 330 330 329 327 326 325 324 323 323 323 323 324 323 322 322 323 320 324 329 329 326 326 326 326 326 326 324 324 325 324 325 325 325 326 326 328 328 325 328 327 328 327
330 330 327 327 326 328 329 328 328 328 327 327 325 324 325 324 324 324 323 322 324 323 321 322 328 329 329 327 326 325 326 326 325 326 323 324 325 324 324 324 323 324 326 328 327 327 325 322 326
331 329 328 326 326 329 328 328 327 326 326 325 324 323 325 325 325 325 324 324 324 323 322 327 328 329 330 328 326 326 327 327 326 325 325 325 325 323 324 324 324 323 325 327 328 327 323 323 327
330 329 327 326 326 329 327 327 327 326 325 324 323 323 323 325 325 325 324 324 325 323 324 328 328 329 329 328 328 327 328 327 326 326 325 325 325 325 325 324 324 322 325 326 328 328 324 325 330
329 329 327 326 327 328 326 327 325 326 324 323 324 323 323 324 325 325 324 325 325 322 326 327 328 328 328 328 329 327 327 327 327 325 325 326 326 327 327 326 325 324 325 327 327 328 327 327 330
328 328 327 327 327 328 327 326 327 326 326 325 324 325 325 325 324 325 325 326 325 322 326 327 327 327 328 327 329 329 327 328 328 326 327 326 327 328 328 328 327 326 324 325 326 327 327 329 331
327 328 330 328 328 327 326 328 328 327 326 326 325 326 325 325 325 324 324 326 324 323 325 326 327 327 328 329 329 330 329 329 329 328 327 327 327 328 329 329 329 328 327 327 327 328 329 330 332
329 329 328 328 328 328 327 328 328 327 326 326 326 326 326 325 326 324 324 326 325 323 324 326 328 328 329 329 331 330 331 331 331 331 326 329 328 328 329 329 330 329 328 328 327 327 328 330 331
331 330 329 329 330 330 328 328 328 328 326 325 326 327 327 326 326 325 325 326 325 323 325 328 328 329 329 331 332 330 331 331 329 329 325 326 329 329 329 331 329 331 330 331 330 328 329 330 330
329 330 329 330 329 329 329 329 329 328 327 326 325 327 328 328 326 325 326 326 325 324 325 328 328 329 330 331 331 330 330 329 330 327 328 328 328 329 330 331 331 330 331 331 331 329 330 330 331
330 330 329 329 329 329 330 329 328 326 326 326 326 327 328 329 327 326 326 327 326 324 323 328 329 329 332 334 333 332 331 330 331 330 329 329 329 330 331 331 330 330 330 331 331 331 331 332 331
330 330 329 331 330 330 330 329 328 327 327 326 325 326 328 330 328 327 327 327 327 324 324 327 329 332 333 333 333 334 333 332 332 329 329 330 329 329 331 331 331 330 329 330 331 331 331 331 332
330 328 328 329 330 331 328 330 328 327 326 325 326 327 328 330 329 328 328 328 327 324 325 327 330 332 332 332 331 333 334 331 332 332 327 329 331 331 331 331 330 332 332 332 331 331 330 329 332
329 328 328 328 329 330 328 329 328 327 326 325 326 326 330 330 329 328 328 328 326 323 326 327 330 330 333 332 330 332 331 332 333 332 326 328 330 330 331 331 332 332 332 332 333 331 330 330 331
328 327 327 328 329 330 328 329 328 327 325 325 326 328 330 330 329 328 327 327 324 323 325 327 329 329 332 332 330 331 332 330 329 331 328 329 330 332 331 332 332 333 333 333 332 332 331 331 333
328 328 330 331 332 331 328 328 328 326 325 325 326 328 332 330 329 328 328 327 324 324 324 327 328 327 329 330 329 329 330 330 330 331 328 328 330 330 331 331 332 332 331 332 332 331 332 333 334
327 328 328 331 332 331 329 329 328 326 325 326 329 333 333 330 328 328 328 326 323 324 323 325 326 326 328 328 329 328 331 333 330 331 330 329 330 329 330 330 331 332 331 331 332 332 333 334 332
328 328 327 329 328 329 330 329 328 325 324 327 331 332 332 330 328 328 328 326 323 324 324 325 325 326 326 328 329 328 330 331 330 329 328 329 331 331 331 331 330 330 331 333 334 333 334 333 332
327 327 328 328 332 333 330 329 328 326 326 330 333 333 331 329 328 328 328 326 322 324 325 325 325 324 325 326 326 326 329 331 332 331 329 325 326 328 329 331 330 331 332 332 333 332 333 332 331
326 326 328 329 329 331 332 330 329 327 326 328 333 333 331 329 328 328 328 326 323 323 325 326 326 323 325 325 326 325 327 329 329 330 330 331 330 326 327 327 328 328 331 332 331 331 331 332 329
327 326 328 330 331 329 331 331 328 327 327 328 332 333 330 329 328 328 328 326 323 323 325 326 326 322 322 324 325 324 326 328 329 330 331 331 331 330 324 327 327 328 331 331 331 329 330 330 328
Wind_Speed
11 9 6 10 7 8 13 2 6 10 3 6 4 7 12 10 8 4 6 4 3 3 3 5 5 9 13 15 15 15 15 14 13 13 14 14 13 14 14 13 12 11 11 10 10 11 11 11 12
10 8 8 8 8 13 2 9 8 10 9 2 1 4 5 4 6 2 3 6 3 1 2 4 6 9 12 16 17 16 15 14 13 14 14 15 14 15 16 15 13 13 13 13 13 12 13 12 11
8 8 9 12 13 14 11 10 11 8 1 6 3 1 4 8 4 3 6 4 4 4 5 4 9 11 13 15 15 18 17 19 18 17 17 17 18 18 18 18 16 14 15 15 14 14 13 13 12
10 10 7 9 19 6 5 12 10 9 5 4 5 7 5 6 3 2 4 4 4 6 6 6 8 12 15 15 15 17 18 18 18 18 19 19 21 21 20 20 20 17 16 17 16 16 13 13 13
14 8 11 16 17 9 3 8 9 9 6 0 2 6 0 8 4 5 4 3 4 6 6 8 10 13 14 13 11 13 14 15 16 17 19 20 21 22 22 22 22 20 17 18 17 13 14 13 13
9 10 13 15 7 6 3 6 8 10 6 1 4 6 2 13 7 5 5 4 3 4 4 6 9 10 10 12 14 15 16 18 19 18 16 18 20 20 21 23 24 23 20 19 17 16 14 13 14
14 12 16 17 17 12 3 6 10 10 11 7 3 7 2 8 8 7 6 4 3 3 5 7 10 11 15 11 13 15 17 18 20 21 20 19 21 22 22 22 23 23 22 21 20 18 16 13 13
12 13 18 16 11 12 8 1 13 7 9 4 3 5 7 9 10 8 7 7 5 6 6 9 10 12 12 12 10 13 16 18 18 20 17 17 18 20 21 21 22 22 22 21 21 20 18 15 13
10 13 14 18 16 11 8 13 3 3 10 5 4 6 6 7 10 10 8 7 6 7 7 9 10 10 11 12 13 13 14 11 15 12 11 12 12 13 14 16 18 21 23 22 21 19 17 15 14
14 13 19 14 14 12 16 17 16 7 9 8 8 6 4 8 11 11 10 9 4 7 9 8 7 10 10 11 12 14 13 11 12 13 11 12 14 14 14 14 12 15 21 23 20 16 15 15 16
18 16 18 15 17 12 16 16 5 9 10 8 4 7 13 12 12 11 9 2 6 6 8 8 8 8 9 11 12 12 6 11 12 10 14 11 12 12 13 15 18 18 17 20 20 16 15 18 16
20 18 18 17 18 11 14 8 9 8 11 5 5 4 9 12 11 12 9 5 4 5 6 6 7 8 8 10 13 11 10 9 11 11 10 13 10 12 12 13 16 16 21 18 19 21 17 19 19
17 17 21 19 16 14 12 10 11 12 8 3 5 7 10 11 12 12 7 5 3 4 5 6 7 7 8 9 13 10 10 14 10 10 9 11 9 9 10 11 14 17 19 18 18 18 18 21 16
21 22 18 16 16 14 10 15 3 10 2 7 9 10 10 12 13 11 9 7 4 3 4 6 7 7 9 11 12 12 12 12 11 8 9 10 10 10 8 9 10 16 18 20 18 18 16 16 15
20 18 19 17 16 15 10 15 16 16 7 8 11 12 14 13 14 13 11 8 4 3 3 6 6 7 9 12 11 10 13 9 11 9 6 9 10 9 8 6 6 13 18 19 21 19 18 14 16
19 21 19 20 18 15 9 18 14 12 9 12 14 13 12 12 13 13 9 8 5 3 3 5 6 8 9 11 11 9 11 8 9 8 9 9 10 10 8 6 7 9 12 17 20 18 12 17 16
18 16 21 19 14 16 16 19 18 10 12 12 14 12 12 12 14 13 12 10 6 4 4 4 5 7 10 11 9 8 7 7 7 7 10 10 11 11 9 8 10 12 14 16 15 18 20 20 17
19 22 17 17 14 13 16 19 17 12 15 14 14 13 12 14 15 16 13 10 7 4 4 3 5 7 10 10 7 6 6 5 5 5 8 8 8 8 8 7 6 11 13 15 13 17 19 19 19
23 18 17 11 9 13 13 17 20 15 15 17 15 12 12 13 13 17 15 12 8 5 4 3 4 6 9 11 11 8 7 7 4 7 9 10 8 7 4 4 5 8 11 13 16 18 19 15 17
23 21 16 15 13 9 13 19 20 19 18 16 14 10 11 13 14 15 16 14 10 6 3 2 2 4 7 8 7 6 6 5 8 6 8 5 8 6 6 7 9 9 11 14 17 18 17 18 19
23 21 17 18 12 9 14 23 20 7 10 10 9 9 9 13 15 15 15 15 11 7 5 3 0 2 5 6 4 5 3 2 5 10 11 6 3 4 6 8 9 11 12 15 18 19 21 21 16
22 19 18 14 13 13 14 14 15 17 7 10 12 13 10 12 15 15 14 15 12 9 7 5 2 2 3 8 6 6 5 4 4 6 9 10 6 4 2 7 9 12 13 14 18 19 21 22 22
20 18 17 14 15 18 19 11 14 10 10 7 5 4 9 13 16 16 15 16 13 10 9 6 4 2 2 5 9 9 9 8 3 5 9 12 8 5 3 5 9 11 13 15 16 19 20 20 23
20 17 17 11 11 15 19 14 15 10 3 3 5 4 8 12 15 16 18 16 14 11 10 8 5 3 0 4 6 8 8 8 6 7 7 9 9 7 5 6 10 13 15 17 19 19 19 20 17
23 14 11 12 13 14 17 12 9 13 4 3 5 6 9 11 15 16 16 15 15 13 12 9 7 5 1 3 5 8 9 8 8 7 10 9 11 12 8 9 11 12 16 18 17 20 19 20 19
22 19 13 15 14 14 11 7 3 5 5 4 3 4 7 13 15 16 16 15 16 14 12 9 8 6 4 3 5 8 12 11 10 9 7 11 10 14 12 12 13 13 16 19 18 20 19 15 20
19 20 20 22 19 13 6 8 9 7 8 8 2 2 9 15 16 16 15 16 15 15 13 10 8 7 5 4 4 6 9 13 11 9 8 10 10 11 13 13 13 11 15 17 18 17 18 19 22
23 18 19 15 19 17 13 11 4 11 10 8 7 7 13 15 16 15 15 16 15 15 14 11 9 8 6 5 5 6 7 8 8 7 9 9 14 13 13 14 17 15 13 15 17 17 17 19 19
21 21 17 15 14 13 11 8 8 6 5 2 8 11 15 16 16 16 15 17 16 16 15 13 10 9 8 7 6 6 7 9 8 8 8 8 9 13 15 15 12 12 13 14 16 17 18 19 17
26 26 22 11 18 12 12 3 11 7 5 7 4 12 16 16 16 16 15 18 18 17 16 14 12 11 10 9 8 8 7 8 9 10 10 9 10 10 12 12 11 12 9 11 15 16 17 19 21
Wind_Direction
166 174 213 243 244 226 262 62 26 291 206 82 1 322 347 328 344 1 107 113 102 109 156 217 235 248 255 258 263 267 267 250 250 248 249 251 264 284 291 291 289 285 279 271 268 253 253 258 262
171 195 232 271 257 268 43 26 341 358 10 34 250 256 259 16 30 56 207 146 179 206 214 259 255 281 282 273 272 272 261 261 263 256 255 255 259 273 281 283 282 277 273 269 264 260 248 250 257
210 224 272 247 246 270 339 19 358 359 110 240 233 133 0 56 85 22 77 153 198 240 250 238 257 271 266 266 268 267 272 279 281 277 272 270 270 268 270 273 273 271 261 259 259 260 254 247 252
199 215 239 255 279 298 349 330 347 311 162 233 329 297 129 76 121 111 143 198 243 266 282 269 278 277 266 258 258 263 269 274 277 277 275 275 273 273 274 266 262 262 256 252 253 255 262 248 246
239 265 264 258 263 304 326 321 336 300 298 296 155 303 179 139 142 153 182 215 265 295 309 312 302 291 276 266 269 266 266 269 270 271 271 275 274 275 274 269 261 251 249 244 247 253 255 263 242
232 234 272 268 292 228 276 22 309 289 293 176 274 304 14 124 164 185 196 216 266 294 301 306 308 297 296 288 278 274 273 273 274 276 275 273 273 273 270 267 261 248 241 235 236 245 253 255 252
252 268 267 285 295 300 2 38 291 324 305 315 35 301 95 165 167 183 195 212 237 285 297 301 300 293 297 289 290 286 282 280 280 279 276 274 275 273 269 262 260 249 236 231 231 239 246 256 257
250 267 273 274 281 283 285 228 276 277 327 18 328 271 340 131 161 186 210 204 244 251 304 310 298 304 298 291 285 289 295 293 290 288 280 275 267 264 264 260 257 240 233 228 230 234 240 247 250
242 262 264 272 287 307 312 281 262 148 280 199 274 292 41 137 176 204 215 239 263 300 304 310 309 307 297 292 288 288 298 290 297 299 289 287 277 268 267 261 250 236 227 221 226 222 233 237 243
237 250 262 293 310 305 299 302 305 282 248 226 218 222 213 196 201 220 215 245 285 311 323 315 311 301 299 295 292 287 278 275 288 291 284 280 278 270 258 262 239 238 222 219 219 218 228 229 227
227 250 274 292 289 295 312 290 299 274 278 310 290 252 186 205 215 231 244 280 320 322 318 325 301 299 297 305 301 290 269 295 279 271 278 271 269 272 254 249 241 232 224 219 214 220 222 216 220
240 243 274 267 274 277 277 315 294 282 279 339 303 293 186 210 216 224 232 225 274 332 315 311 308 303 300 304 300 297 303 275 271 264 263 265 270 272 259 249 243 225 216 205 207 214 209 217 215
240 249 254 269 254 266 270 276 278 296 315 269 261 236 226 215 222 218 225 216 271 307 322 309 313 310 311 296 288 293 282 276 275 269 264 264 272 271 270 254 240 225 211 193 202 215 208 208 194
236 242 257 263 244 257 242 264 209 282 224 239 247 246 230 223 216 202 208 222 239 296 301 308 312 319 313 291 285 275 274 273 267 279 271 263 258 266 273 264 236 209 194 193 193 206 204 205 196
252 258 260 255 255 247 229 260 248 255 207 253 237 235 233 216 210 209 204 208 233 268 284 304 301 321 306 295 281 287 263 269 285 276 246 265 261 259 259 252 219 194 198 198 193 197 208 173 194
248 246 253 246 215 228 216 261 263 246 235 248 248 229 234 218 214 206 195 199 206 256 276 304 320 322 323 307 297 285 289 288 281 279 271 269 261 261 258 227 205 193 189 193 183 188 168 176 180
224 243 242 255 173 228 206 261 291 289 283 268 262 252 229 214 210 201 197 195 200 225 258 305 320 320 321 308 300 302 289 280 279 277 270 274 264 257 253 240 202 187 178 187 186 176 173 172 170
224 228 231 261 212 211 252 258 261 271 277 267 241 251 224 213 202 200 202 193 192 216 246 282 313 319 324 313 321 318 313 297 299 281 269 274 268 254 249 237 189 173 176 178 185 171 163 170 172
246 257 253 243 247 250 276 277 285 283 271 271 253 244 232 210 202 191 194 191 191 212 237 265 318 323 330 337 346 1 349 339 358 305 287 260 249 244 227 179 160 164 167 168 168 162 159 165 136
241 252 255 262 259 268 289 283 290 282 276 268 249 242 220 199 194 180 187 191 192 197 209 219 308 340 342 357 351 357 338 12 16 7 11 30 196 199 193 190 174 169 166 163 163 160 153 144 144
228 242 244 260 271 243 271 268 258 257 271 245 235 255 215 195 191 182 185 190 188 193 185 168 100 22 5 348 25 6 329 334 12 36 32 47 134 178 191 175 174 175 169 169 166 163 154 146 150
228 227 247 269 275 266 274 284 294 273 264 256 234 201 208 181 183 181 184 186 188 183 172 164 141 48 38 2 4 1 18 17 39 42 29 41 80 120 200 197 181 170 175 175 169 166 162 156 152
233 235 239 229 252 270 264 264 273 267 221 251 249 259 154 170 179 179 183 180 180 174 171 174 153 101 32 17 9 25 32 24 45 67 29 49 63 64 118 150 183 178 172 168 163 164 164 160 155
225 227 254 265 259 257 257 253 266 271 128 303 301 182 159 171 172 172 176 174 172 178 170 174 160 127 283 13 30 21 45 51 41 48 52 62 53 56 86 122 143 154 152 155 157 156 158 155 153
220 210 228 230 233 248 247 237 284 298 311 327 329 320 146 163 169 170 173 172 171 176 172 173 168 144 145 57 43 23 14 66 65 81 79 74 52 38 58 116 118 130 139 138 144 150 150 151 146
205 211 224 219 234 247 141 227 263 217 61 264 289 347 138 168 166 170 173 172 175 175 177 183 170 162 161 85 57 41 34 64 75 96 78 58 58 53 98 97 100 105 132 131 132 137 147 146 139
189 214 225 253 284 289 217 212 198 192 212 199 167 175 155 165 164 171 170 173 176 174 177 176 166 161 166 128 95 69 64 78 89 85 71 71 61 70 79 103 96 102 113 125 130 128 130 127 133
220 200 217 229 246 261 245 235 244 166 211 117 151 166 159 164 166 172 171 174 177 177 174 179 175 171 169 146 128 105 88 98 95 77 59 68 68 73 94 93 99 94 108 130 131 122 128 123 121
203 224 204 244 224 237 248 261 119 152 159 323 147 159 170 171 171 173 173 173 179 177 176 181 185 167 170 157 138 130 106 100 94 80 72 79 83 77 94 110 117 107 104 115 127 124 126 125 129
214 210 207 216 222 249 274 245 112 161 205 183 196 155 173 179 175 174 174 174 178 180 174 178 183 176 176 165 151 138 127 114 101 94 89 91 98 98 97 98 107 118 116 115 123 134 143 140 139